Flag for U.S.A. Weather past 2 weeks in Mason, Ohio, U.S.A.

Now
77 °F

Clear.


Feels Like: 78 °F
Forecast: 66 / 85 °F
Wind: No wind

Location: Butler County Regional Airport

Current Time: Jul 30, 2015 at 12:30:56 AM

Latest Report: Jul 29, 2015 at 10:53 PM


Visibility: 8 mi

Pressure: 29.98 "Hg

Humidity: 90%

Dew point: 74 °F

Location of MasonLocation

Historic Weather in Mason — Graph

°F

Mason temperature yesterday

Maximum temperature yesterday: 92 °F (at 1:53 PM)
Minimum temperature yesterday: 71 °F (at 5:53 AM)
Average temperature yesterday: 79 °F

Past Weeks' High & Low Weather Summary

 TemperatureHumidityPressure
High93 °F (Jul 18, 3:53 PM)100% (Jul 20, 3:53 AM)30.07 "Hg (Jul 20, 3:53 AM)
Low56 °F (Jul 22, 5:53 AM)39% (Jul 24, 4:53 PM)29.72 "Hg (Jul 14, 10:53 PM)
Average75 °F77%29.94 "Hg
* Reported Jul 14 10:53 PM — Jul 29 10:53 PM, Mason, Weather by CustomWeather, © 2015

Note: Actual official high and low records may vary slightly from our data, if they occured in-between our weather recording intervals... More about our weather records

Advertising

Mason weather history for previous 24 hours

 ConditionsComfort  
Time TempWeatherWind HumidityBarometerVisibility
10:53 PM
Wed, Jul 29
77 °FClear.No wind90%29.98 "Hg8 mi
9:53 PM77 °FPartly cloudy.No wind90%29.96 "Hg9 mi
8:53 PM78 °FPassing clouds.No wind90%29.95 "Hg7 mi
7:53 PM80 °FPassing clouds.3 mph85%29.94 "Hg10 mi
6:53 PM81 °FLight rain. Scattered clouds.5 mph85%29.94 "Hg9 mi
5:53 PM82 °FSunny.5 mph82%29.94 "Hg10 mi
4:53 PM80 °FPassing clouds.No wind85%29.93 "Hg9 mi
3:57 PM75 °FThunderstorms. Fog.5 mph90%29.94 "Hg3 mi
2:53 PM92 °FSunny.6 mph58%29.93 "Hg10 mi
1:53 PM92 °FPassing clouds.5 mph58%29.95 "Hg10 mi
12:53 PM89 °FPartly sunny.3 mph63%29.96 "Hg10 mi
11:53 AM90 °FPassing clouds.5 mph59%29.97 "Hg10 mi
10:53 AM87 °FSunny.No wind67%29.98 "Hg9 mi
9:53 AM84 °FSunny.No wind74%29.98 "Hg7 mi
8:53 AM79 °FSunny.No wind84%29.98 "Hg5 mi
7:53 AM76 °FFog.No wind94%29.98 "Hg3 mi
6:53 AM71 °FFog.No wind96%29.97 "Hg2 mi
5:53 AM71 °FFog.No wind96%29.96 "Hg2 mi
4:53 AM72 °FFog.No wind93%29.96 "Hg3 mi
4:00 AM72 °FFog.No wind93%29.96 "Hg4 mi
2:53 AM72 °FFog.No wind97%29.95 "Hg5 mi
1:53 AM73 °FLight rain. Fog.No wind94%29.96 "Hg6 mi
12:53 AM74 °FLight rain. Clear.No wind94%29.97 "Hg7 mi
Weather by CustomWeather, © 2015

See weather overviewHow to use our weather pages